Location: Marcé
(47.5801°N, 0.3280°W)
Time: 12:19:37
(UTC+01:00)

ISS - Pass Details

Date: 31 October 2021
Orbit: 417 x 422 km, 51.6° (Epoch: 07 December)

Event Time Altitude Azimuth Distance (km) Brightness Sun altitude
Exits shadow 05:28:21 35° 36° (NE) 704 -2.4 -23.3°
Drops below altitude 10° 05:30:39 10° 64° (ENE) 1,501 0.0 -22.9°
Sets 05:32:48 0° 71° (ENE) 2,365 1.4 -22.5°
